Tracking 25995 objects as of 20-Aug-2022
HD Live streaming from Space Station
objects crossing your sky now

STARLINK-2562

Track STARLINK-2562 now!
10-day predictions
STARLINK-2562 is classified as:


NORAD ID: 48288
Int'l Code: 2021-036N
Perigee: 553.2 km
Apogee: 555.5 km
Inclination: 53.1 °
Period: 95.6 minutes
Semi major axis: 6925 km
RCS: Unknown
Launch date: April 29, 2021
Source: United States (US)
Launch site: AIR FORCE EASTERN TEST RANGE (AFETR)
aabbcc
Your satellite tracking list
Your tracking list is empty




NASA's NSSDC Master Catalog

Two Line Element Set (TLE):
1 48288U 21036N   22231.10380677  .00003365  00000-0  24463-3 0  9993
2 48288  53.0532 151.1896 0001636  69.0016 291.1148 15.06408682 72587
Source of the keplerian elements: AFSPC